Starlink 11475

operational
NORAD ID: 62226 Int'l Des: 2024-231 Owner: SPXS Country: US Constellation: starlink
LEOCIRCULAR

关于 Starlink 11475

正在加载描述...

实时位置

正在加载3D地球...

即将过境

高度历史

Altitude vs Time

uPlot chart will show altitude changes over time

两行轨道根数

1 62226U 24231J 26036.60025993 .00455536 00000-0 35438-2 0 9994
2 62226 53.1558 259.2937 0002048 107.1182 253.0060 15.69836643 68379
Epoch: Feb 5, 2026 • Age: 10 hours

当前状态

高度 361.0 km
速度 7.69 km/s
星下点 -10.38°S, 56.93°W
发射日期 Dec 5, 2024
运行时间 1.1 years
类型 internet

技术详情

分类 Payload
质量 960.00 kg
干质量 910.00 kg
总质量 960.00 kg
长度 0.30 m
直径 4.10 m
跨度 29.00 m
形状 Box + pan
制造商 SPXS
平台类型 Starlink V2MD
阶段状态 In Orbit
所有者/国家 SPXS/US

大型星座

Loading constellations...